STARLINK-33729 (63647 NORAD) Tracking and Keplerian Element Data

This shows tracking and keplerian element data for the satellite.

Feedback or suggestion? Click here.




ElementValue
Catalog63647
NameSTARLINK-33729
Epoch Orbit3787
Epoch Day353.98753676
Epoch Year2025
RAAN95.6558
Inclination42.996
Eccentricity7E-05
Argument of Perigee325.0427
Mean Anonmoly35.0378
Mean Motion15.27573491
Decay Rate0.00020268
L11 63647U 25083P 25353.98753676 .00020268 00000+0 74415-3 0 9994
L22 63647 42.9960 95.6558 0000700 325.0427 35.0378 15.27573491 37871



Live tracking and technical data element details for STARLINK-33729 (NORAD 63647). STARLINK-33729 can be tracked NOW for your location showing map with azimuth and elevation plus other details from your city location.







IsCatalogInMostPopularTable: catalog: 63647, numindb: 6
Update: records affected: 1



GetName: 63647 STARLINK-33729

Hit Count: updated at: Tue, 21 Apr 2026 20:38:06 GMT